Вернуться в каталог

NOAA 16 DEB

АктивенSSO
NORAD 41056·DEBRIS·🇺🇸 United States

Запущен Sep 21, 2000 с Vandenberg Space Force Base

Loading…

Ближайшие Пролёты (ближайшие 24 часа)

TLE

СвежийSource: Space-Track

Эпоха: Sep 14, 2026, 10:48 UTC

1 41056U 00055P   26257.45010115  .00000572  00000-0  32338-3 0  9991
2 41056  98.5643 253.1165 0015896 217.2719 142.7353 14.13904928556107

Отслеживайте NOAA 16 DEB в реальном времени с AllMySat

Download on the App Store